| time (UTC) | temp C | wind direction | speed KPH | gust KPH | rain 1hr cm | rain 24hr cm | rain mn cm | humidity % | barometer mb |
| 20260902153503 | 27 | 222 | 4.8 | 8.0 | 0.00 | 0.00 | 0.00 | 71 | 1017.1 |
| 20260902153003 | 27 | 220 | 4.8 | 8.0 | 0.00 | 0.00 | 0.00 | 70 | 1017.1 |
| 20260902152503 | 27 | 213 | 4.8 | 8.0 | 0.00 | 0.00 | 0.00 | 69 | 1017.2 |
| 20260902152003 | 28 | 214 | 4.8 | 6.4 | 0.00 | 0.00 | 0.00 | 70 | 1017.2 |
| 20260902151503 | 28 | 216 | 4.8 | 8.0 | 0.00 | 0.00 | 0.00 | 70 | 1017.2 |
| 20260902151003 | 28 | 213 | 4.8 | 8.0 | 0.00 | 0.00 | 0.00 | 69 | 1017.2 |
| 20260902150503 | 28 | 215 | 4.8 | 6.4 | 0.00 | 0.00 | 0.00 | 71 | 1017.3 |
| 20260902150004 | 27 | 218 | 4.8 | 8.0 | 0.00 | 0.00 | 0.00 | 70 | 1017.3 |
| 20260902145503 | 27 | 216 | 4.8 | 8.0 | 0.00 | 0.00 | 0.00 | 69 | 1017.4 |
| 20260902145003 | 28 | 212 | 4.8 | 6.4 | 0.00 | 0.00 | 0.00 | 69 | 1017.4 |
| 20260902144503 | 28 | 209 | 4.8 | 6.4 | 0.00 | 0.00 | 0.00 | 70 | 1017.4 |
| 20260902144003 | 28 | 208 | 4.8 | 9.7 | 0.00 | 0.00 | 0.00 | 70 | 1017.4 |
| 20260902143504 | 28 | 210 | 4.8 | 9.7 | 0.00 | 0.00 | 0.00 | 71 | 1017.4 |
| 20260902143003 | 28 | 215 | 4.8 | 8.0 | 0.00 | 0.00 | 0.00 | 70 | 1017.5 |
| 20260902142503 | 27 | 218 | 4.8 | 8.0 | 0.00 | 0.00 | 0.00 | 71 | 1017.5 |
| 20260902142003 | 27 | 217 | 4.8 | 6.4 | 0.00 | 0.00 | 0.00 | 69 | 1017.4 |
| 20260902141503 | 28 | 215 | 4.8 | 6.4 | 0.00 | 0.00 | 0.00 | 70 | 1017.4 |
| 20260902141004 | 27 | 214 | 4.8 | 6.4 | 0.00 | 0.00 | 0.00 | 69 | 1017.4 |
| 20260902140503 | 28 | 210 | 4.8 | 6.4 | 0.00 | 0.00 | 0.00 | 69 | 1017.4 |
| 20260902140003 | 28 | 209 | 4.8 | 8.0 | 0.00 | 0.00 | 0.00 | 70 | 1017.5 |
| 20260902135503 | 28 | 210 | 4.8 | 8.0 | 0.00 | 0.00 | 0.00 | 70 | 1017.6 |
| 20260902135003 | 27 | 218 | 4.8 | 8.0 | 0.00 | 0.00 | 0.00 | 71 | 1017.7 |
| 20260902134503 | 27 | 222 | 4.8 | 8.0 | 0.00 | 0.00 | 0.00 | 70 | 1017.8 |
| 20260902134003 | 27 | 213 | 4.8 | 6.4 | 0.00 | 0.00 | 0.00 | 69 | 1017.8 |
| 20260902133503 | 28 | 212 | 4.8 | 8.0 | 0.00 | 0.00 | 0.00 | 70 | 1017.8 |
| 20260902133003 | 28 | 216 | 4.8 | 9.7 | 0.00 | 0.00 | 0.00 | 71 | 1017.8 |
| 20260902132503 | 27 | 215 | 4.8 | 9.7 | 0.00 | 0.00 | 0.00 | 70 | 1017.8 |
| 20260902132003 | 28 | 213 | 4.8 | 9.7 | 0.00 | 0.00 | 0.00 | 71 | 1017.9 |
| 20260902131503 | 27 | 218 | 4.8 | 9.7 | 0.00 | 0.00 | 0.00 | 71 | 1017.9 |
| 20260902131003 | 27 | 221 | 4.8 | 8.0 | 0.00 | 0.00 | 0.00 | 71 | 1017.9 |
| 20260902130503 | 27 | 223 | 4.8 | 9.7 | 0.00 | 0.00 | 0.00 | 71 | 1017.9 |
| 20260902130004 | 27 | 219 | 4.8 | 9.7 | 0.00 | 0.00 | 0.00 | 69 | 1018.0 |
| 20260902125503 | 28 | 220 | 4.8 | 8.0 | 0.00 | 0.00 | 0.00 | 70 | 1018.1 |
| 20260902125003 | 27 | 221 | 4.8 | 8.0 | 0.00 | 0.00 | 0.00 | 71 | 1018.1 |
| 20260902124503 | 28 | 222 | 4.8 | 8.0 | 0.00 | 0.00 | 0.00 | 70 | 1018.2 |
| 20260902124003 | 28 | 224 | 4.8 | 8.0 | 0.00 | 0.00 | 0.00 | 70 | 1018.2 |
| 20260902123503 | 28 | 220 | 4.8 | 8.0 | 0.00 | 0.00 | 0.00 | 71 | 1018.3 |
| 20260902123003 | 28 | 218 | 4.8 | 8.0 | 0.00 | 0.00 | 0.00 | 71 | 1018.3 |
| 20260902122503 | 28 | 216 | 4.8 | 8.0 | 0.00 | 0.00 | 0.00 | 72 | 1018.3 |
| 20260902122003 | 27 | 218 | 4.8 | 8.0 | 0.00 | 0.00 | 0.00 | 72 | 1018.4 |
| 20260902121503 | 27 | 222 | 3.2 | 8.0 | 0.00 | 0.00 | 0.00 | 71 | 1018.4 |
| 20260902121003 | 28 | 221 | 3.2 | 8.0 | 0.00 | 0.00 | 0.00 | 72 | 1018.4 |
| 20260902120503 | 27 | 220 | 3.2 | 8.0 | 0.00 | 0.00 | 0.00 | 72 | 1018.5 |
| 20260902120004 | 27 | 216 | 3.2 | 6.4 | 0.00 | 0.00 | 0.00 | 73 | 1018.4 |
| 20260902115503 | 27 | 220 | 3.2 | 6.4 | 0.00 | 0.00 | 0.00 | 74 | 1018.4 |
| 20260902115003 | 27 | 225 | 4.8 | 6.4 | 0.00 | 0.00 | 0.00 | 74 | 1018.5 |
| 20260902114503 | 26 | 224 | 4.8 | 6.4 | 0.00 | 0.00 | 0.00 | 73 | 1018.6 |
| 20260902114003 | 27 | 221 | 4.8 | 6.4 | 0.00 | 0.00 | 0.00 | 72 | 1018.5 |
| 20260902113503 | 27 | 216 | 3.2 | 6.4 | 0.00 | 0.00 | 0.00 | 73 | 1018.5 |
| 20260902113003 | 27 | 215 | 3.2 | 6.4 | 0.00 | 0.00 | 0.00 | 74 | 1018.6 |
| 20260902112503 | 27 | 221 | 3.2 | 6.4 | 0.00 | 0.00 | 0.00 | 73 | 1018.6 |
| 20260902112003 | 27 | 228 | 4.8 | 6.4 | 0.00 | 0.00 | 0.00 | 73 | 1018.6 |
| 20260902111503 | 27 | 223 | 4.8 | 6.4 | 0.00 | 0.00 | 0.00 | 74 | 1018.7 |
| 20260902111003 | 27 | 222 | 4.8 | 6.4 | 0.00 | 0.00 | 0.00 | 74 | 1018.7 |
| 20260902110503 | 27 | 220 | 4.8 | 8.0 | 0.00 | 0.00 | 0.00 | 74 | 1018.7 |
| 20260902110005 | 26 | 219 | 4.8 | 8.0 | 0.00 | 0.00 | 0.00 | 74 | 1018.7 |
| 20260902105504 | 27 | 227 | 4.8 | 8.0 | 0.00 | 0.00 | 0.00 | 74 | 1018.8 |
| 20260902105003 | 27 | 228 | 4.8 | 8.0 | 0.00 | 0.00 | 0.00 | 74 | 1018.8 |
| 20260902104504 | 27 | 227 | 4.8 | 8.0 | 0.00 | 0.00 | 0.00 | 74 | 1018.9 |
| 20260902104003 | 26 | 229 | 4.8 | 8.0 | 0.00 | 0.00 | 0.00 | 74 | 1019.0 |
| 20260902103503 | 26 | 227 | 4.8 | 8.0 | 0.00 | 0.00 | 0.00 | 74 | 1019.0 |
| 20260902103003 | 27 | 223 | 4.8 | 9.7 | 0.00 | 0.00 | 0.00 | 74 | 1019.1 |
| 20260902102503 | 27 | 225 | 3.2 | 9.7 | 0.00 | 0.00 | 0.00 | 74 | 1019.1 |
| 20260902102003 | 27 | 227 | 3.2 | 8.0 | 0.00 | 0.00 | 0.00 | 74 | 1019.1 |
| 20260902101503 | 27 | 226 | 4.8 | 8.0 | 0.00 | 0.00 | 0.00 | 74 | 1019.0 |
| 20260902101004 | 27 | 231 | 4.8 | 6.4 | 0.00 | 0.00 | 0.00 | 75 | 1019.0 |
| 20260902100503 | 27 | 228 | 4.8 | 8.0 | 0.00 | 0.00 | 0.00 | 75 | 1019.0 |
| 20260902100004 | 27 | 227 | 4.8 | 8.0 | 0.00 | 0.00 | 0.00 | 74 | 1019.0 |
| 20260902095503 | 27 | 234 | 4.8 | 8.0 | 0.00 | 0.00 | 0.00 | 75 | 1019.1 |
| 20260902095003 | 27 | 226 | 4.8 | 6.4 | 0.00 | 0.00 | 0.00 | 75 | 1019.1 |
| 20260902094503 | 26 | 221 | 4.8 | 8.0 | 0.00 | 0.00 | 0.00 | 75 | 1019.0 |
| 20260902094003 | 27 | 224 | 4.8 | 8.0 | 0.00 | 0.00 | 0.00 | 76 | 1019.0 |
| 20260902093503 | 26 | 224 | 4.8 | 6.4 | 0.00 | 0.00 | 0.00 | 76 | 1019.0 |
| 20260902093003 | 27 | 223 | 4.8 | 8.0 | 0.00 | 0.00 | 0.00 | 76 | 1019.0 |
| 20260902092506 | 26 | 221 | 4.8 | 8.0 | 0.00 | 0.00 | 0.00 | 76 | 1019.0 |
| 20260902092003 | 26 | 223 | 4.8 | 9.7 | 0.00 | 0.00 | 0.00 | 76 | 1019.0 |
| 20260902091503 | 26 | 221 | 4.8 | 9.7 | 0.00 | 0.00 | 0.00 | 76 | 1019.1 |
| 20260902091003 | 26 | 218 | 3.2 | 8.0 | 0.00 | 0.00 | 0.00 | 76 | 1019.0 |
| 20260902090503 | 26 | 219 | 3.2 | 6.4 | 0.00 | 0.00 | 0.00 | 76 | 1019.0 |
| 20260902085503 | 26 | 220 | 3.2 | 8.0 | 0.00 | 0.00 | 0.00 | 77 | 1018.9 |
| 20260902085003 | 26 | 212 | 3.2 | 8.0 | 0.00 | 0.00 | 0.00 | 77 | 1019.0 |
| 20260902084503 | 26 | 209 | 3.2 | 6.4 | 0.00 | 0.00 | 0.00 | 77 | 1019.0 |
| 20260902084003 | 26 | 217 | 3.2 | 6.4 | 0.00 | 0.00 | 0.00 | 77 | 1018.9 |
| 20260902083504 | 26 | 220 | 3.2 | 8.0 | 0.00 | 0.00 | 0.00 | 78 | 1018.8 |
| 20260902083003 | 26 | 219 | 3.2 | 8.0 | 0.00 | 0.00 | 0.00 | 77 | 1018.8 |
| 20260902082503 | 26 | 221 | 3.2 | 6.4 | 0.00 | 0.00 | 0.00 | 78 | 1018.8 |
| 20260902082003 | 26 | 220 | 3.2 | 6.4 | 0.00 | 0.00 | 0.00 | 78 | 1018.6 |
| 20260902081503 | 26 | 222 | 1.6 | 6.4 | 0.00 | 0.00 | 0.00 | 78 | 1018.6 |
| 20260902081003 | 26 | 227 | 0.0 | 6.4 | 0.00 | 0.00 | 0.00 | 78 | 1018.5 |
| 20260902080503 | 25 | 0 | 0.0 | 4.8 | 0.00 | 0.00 | 0.00 | 78 | 1018.4 |
| 20260902080004 | 25 | 0 | 0.0 | 0.0 | 0.00 | 0.00 | 0.00 | 78 | 1018.4 |
| 20260902075503 | 25 | 0 | 0.0 | 0.0 | 0.00 | 0.00 | 0.00 | 79 | 1018.3 |
| 20260902075004 | 25 | 0 | 0.0 | 0.0 | 0.00 | 0.00 | 0.00 | 79 | 1018.3 |
| 20260902074503 | 25 | 0 | 0.0 | 0.0 | 0.00 | 0.00 | 0.00 | 79 | 1018.2 |
| 20260902074003 | 25 | 0 | 0.0 | 0.0 | 0.00 | 0.00 | 0.00 | 79 | 1018.2 |
| 20260902073503 | 25 | 0 | 0.0 | 0.0 | 0.00 | 0.00 | 0.00 | 79 | 1018.2 |
| 20260902073003 | 25 | 0 | 0.0 | 0.0 | 0.00 | 0.00 | 0.00 | 79 | 1018.2 |
| 20260902072503 | 25 | 0 | 0.0 | 0.0 | 0.00 | 0.00 | 0.00 | 79 | 1018.2 |
| 20260902072003 | 25 | 0 | 0.0 | 0.0 | 0.00 | 0.00 | 0.00 | 79 | 1018.1 |
| 20260902071503 | 25 | 0 | 0.0 | 0.0 | 0.00 | 0.00 | 0.00 | 79 | 1018.1 |
| 20260902071003 | 25 | 0 | 0.0 | 0.0 | 0.00 | 0.00 | 0.00 | 79 | 1018.1 |
| 20260902070503 | 25 | 0 | 0.0 | 0.0 | 0.00 | 0.00 | 0.00 | 79 | 1018.1 |
| 20260902070006 | 25 | 0 | 0.0 | 0.0 | 0.00 | 0.00 | 0.00 | 79 | 1018.2 |
| 20260902065504 | 24 | 0 | 0.0 | 0.0 | 0.00 | 0.00 | 0.00 | 80 | 1018.2 |
| 20260902065003 | 24 | 0 | 0.0 | 0.0 | 0.00 | 0.00 | 0.00 | 80 | 1018.2 |
| 20260902064503 | 24 | 0 | 0.0 | 0.0 | 0.00 | 0.00 | 0.00 | 80 | 1018.1 |
| 20260902064003 | 24 | 0 | 0.0 | 0.0 | 0.00 | 0.00 | 0.00 | 79 | 1018.2 |
| 20260902063503 | 24 | 0 | 0.0 | 0.0 | 0.00 | 0.00 | 0.00 | 79 | 1018.1 |
| 20260902063003 | 24 | 0 | 0.0 | 0.0 | 0.00 | 0.00 | 0.00 | 79 | 1018.1 |
| 20260902062503 | 24 | 0 | 0.0 | 0.0 | 0.00 | 0.00 | 0.00 | 79 | 1018.1 |
| 20260902062003 | 24 | 0 | 0.0 | 0.0 | 0.00 | 0.00 | 0.00 | 79 | 1018.2 |
| 20260902061612 | 24 | 0 | 0.0 | 1.6 | 0.00 | 0.00 | 0.00 | 79 | 1018.1 |
| 20260902061003 | 24 | 11 | 0.0 | 1.6 | 0.00 | 0.00 | 0.00 | 79 | 1018.2 |
| 20260902060503 | 24 | 12 | 1.6 | 3.2 | 0.00 | 0.00 | 0.00 | 80 | 1018.2 |
| 20260902060003 | 24 | 32 | 1.6 | 3.2 | 0.00 | 0.00 | 0.00 | 80 | 1018.1 |
| 20260902055504 | 23 | 33 | 1.6 | 4.8 | 0.00 | 0.00 | 0.00 | 80 | 1018.0 |
| 20260902055003 | 23 | 30 | 3.2 | 4.8 | 0.00 | 0.00 | 0.00 | 80 | 1018.1 |
| 20260902054503 | 23 | 34 | 3.2 | 4.8 | 0.00 | 0.00 | 0.00 | 79 | 1018.1 |
| 20260902054003 | 23 | 36 | 3.2 | 4.8 | 0.00 | 0.00 | 0.00 | 79 | 1017.9 |
| 20260902053503 | 23 | 35 | 4.8 | 8.0 | 0.00 | 0.00 | 0.00 | 79 | 1017.8 |
| 20260902053004 | 23 | 38 | 4.8 | 9.7 | 0.00 | 0.00 | 0.00 | 79 | 1017.7 |
| 20260902052503 | 23 | 37 | 4.8 | 9.7 | 0.00 | 0.00 | 0.00 | 79 | 1017.7 |
| 20260902052003 | 23 | 34 | 4.8 | 9.7 | 0.00 | 0.00 | 0.00 | 79 | 1017.6 |
| 20260902051503 | 23 | 38 | 3.2 | 8.0 | 0.00 | 0.00 | 0.00 | 79 | 1017.6 |
| 20260902051003 | 23 | 41 | 3.2 | 8.0 | 0.00 | 0.00 | 0.00 | 79 | 1017.7 |
| 20260902050504 | 23 | 39 | 3.2 | 6.4 | 0.00 | 0.00 | 0.00 | 79 | 1017.6 |
| 20260902050006 | 23 | 36 | 3.2 | 6.4 | 0.00 | 0.00 | 0.00 | 79 | 1017.6 |
| 20260902045504 | 23 | 35 | 3.2 | 4.8 | 0.00 | 0.00 | 0.00 | 79 | 1017.7 |
| 20260902045003 | 23 | 36 | 3.2 | 4.8 | 0.00 | 0.00 | 0.00 | 79 | 1017.6 |
| 20260902044503 | 23 | 35 | 3.2 | 6.4 | 0.00 | 0.00 | 0.00 | 78 | 1017.6 |
| 20260902044003 | 23 | 37 | 3.2 | 6.4 | 0.00 | 0.00 | 0.00 | 78 | 1017.7 |
| 20260902043503 | 23 | 37 | 3.2 | 6.4 | 0.00 | 0.00 | 0.00 | 78 | 1017.6 |
| 20260902043003 | 23 | 35 | 3.2 | 4.8 | 0.00 | 0.00 | 0.00 | 78 | 1017.6 |
| 20260902042503 | 23 | 29 | 3.2 | 6.4 | 0.00 | 0.00 | 0.00 | 77 | 1017.6 |
| 20260902042003 | 23 | 23 | 4.8 | 6.4 | 0.00 | 0.00 | 0.00 | 77 | 1017.6 |
| 20260902041504 | 23 | 29 | 6.4 | 8.0 | 0.00 | 0.00 | 0.00 | 77 | 1017.5 |
| 20260902041003 | 23 | 37 | 6.4 | 9.7 | 0.00 | 0.00 | 0.00 | 77 | 1017.6 |
| 20260902040503 | 23 | 43 | 4.8 | 9.7 | 0.00 | 0.00 | 0.00 | 77 | 1017.6 |
| 20260902040003 | 23 | 42 | 3.2 | 9.7 | 0.00 | 0.00 | 0.00 | 77 | 1017.5 |
| 20260902035503 | 23 | 37 | 3.2 | 8.0 | 0.00 | 0.00 | 0.00 | 77 | 1017.4 |
| 20260902035003 | 23 | 35 | 3.2 | 6.4 | 0.00 | 0.00 | 0.00 | 77 | 1017.5 |
| 20260902034503 | 23 | 34 | 3.2 | 6.4 | 0.00 | 0.00 | 0.00 | 77 | 1017.4 |
| 20260902034003 | 23 | 34 | 4.8 | 6.4 | 0.00 | 0.00 | 0.00 | 76 | 1017.4 |
| 20260902033503 | 23 | 32 | 4.8 | 8.0 | 0.00 | 0.00 | 0.00 | 76 | 1017.4 |
| 20260902033003 | 23 | 31 | 4.8 | 8.0 | 0.00 | 0.00 | 0.00 | 76 | 1017.5 |
| 20260902032503 | 23 | 34 | 4.8 | 8.0 | 0.00 | 0.00 | 0.00 | 76 | 1017.5 |
| 20260902032003 | 23 | 42 | 4.8 | 12.9 | 0.00 | 0.00 | 0.00 | 76 | 1017.6 |
| 20260902031503 | 23 | 44 | 4.8 | 12.9 | 0.00 | 0.00 | 0.00 | 76 | 1017.5 |
| 20260902031003 | 23 | 40 | 4.8 | 8.0 | 0.00 | 0.00 | 0.00 | 76 | 1017.5 |
| 20260902030503 | 23 | 35 | 4.8 | 9.7 | 0.00 | 0.00 | 0.00 | 76 | 1017.5 |
| 20260902030004 | 23 | 37 | 6.4 | 9.7 | 0.00 | 0.00 | 0.00 | 76 | 1017.5 |
| 20260902025503 | 23 | 38 | 6.4 | 9.7 | 0.00 | 0.00 | 0.00 | 76 | 1017.5 |
| 20260902025003 | 23 | 35 | 4.8 | 11.3 | 0.00 | 0.00 | 0.00 | 76 | 1017.5 |
| 20260902024503 | 23 | 32 | 4.8 | 11.3 | 0.00 | 0.00 | 0.00 | 76 | 1017.4 |
| 20260902024003 | 23 | 35 | 4.8 | 8.0 | 0.00 | 0.00 | 0.00 | 76 | 1017.6 |
| 20260902023503 | 23 | 37 | 4.8 | 8.0 | 0.00 | 0.00 | 0.00 | 75 | 1017.6 |
| 20260902023003 | 23 | 39 | 3.2 | 8.0 | 0.00 | 0.00 | 0.00 | 75 | 1017.5 |
| 20260902022503 | 23 | 41 | 3.2 | 8.0 | 0.00 | 0.00 | 0.00 | 75 | 1017.5 |
| 20260902022003 | 23 | 35 | 4.8 | 8.0 | 0.00 | 0.00 | 0.00 | 75 | 1017.5 |
| 20260902021504 | 23 | 33 | 4.8 | 11.3 | 0.00 | 0.00 | 0.00 | 75 | 1017.5 |
| 20260902021003 | 23 | 31 | 4.8 | 11.3 | 0.00 | 0.00 | 0.00 | 75 | 1017.5 |
| 20260902020503 | 23 | 32 | 4.8 | 8.0 | 0.00 | 0.00 | 0.00 | 75 | 1017.6 |
| 20260902020004 | 23 | 34 | 4.8 | 11.3 | 0.00 | 0.00 | 0.00 | 74 | 1017.6 |
| 20260902015503 | 23 | 34 | 4.8 | 11.3 | 0.00 | 0.00 | 0.00 | 74 | 1017.6 |
| 20260902015003 | 23 | 35 | 4.8 | 9.7 | 0.00 | 0.00 | 0.00 | 74 | 1017.5 |
| 20260902014503 | 23 | 35 | 6.4 | 8.0 | 0.00 | 0.00 | 0.00 | 74 | 1017.6 |
| 20260902014003 | 23 | 35 | 6.4 | 12.9 | 0.00 | 0.00 | 0.00 | 74 | 1017.6 |
| 20260902013503 | 23 | 41 | 6.4 | 12.9 | 0.00 | 0.00 | 0.00 | 74 | 1017.6 |
| 20260902013003 | 23 | 44 | 4.8 | 11.3 | 0.00 | 0.00 | 0.00 | 74 | 1017.5 |
| 20260902012504 | 23 | 42 | 4.8 | 8.0 | 0.00 | 0.00 | 0.00 | 74 | 1017.5 |
| 20260902012003 | 23 | 42 | 4.8 | 9.7 | 0.00 | 0.00 | 0.00 | 73 | 1017.4 |
| 20260902011503 | 23 | 42 | 4.8 | 9.7 | 0.00 | 0.00 | 0.00 | 73 | 1017.4 |
| 20260902011003 | 23 | 39 | 4.8 | 8.0 | 0.00 | 0.00 | 0.00 | 73 | 1017.5 |
| 20260902010503 | 23 | 37 | 4.8 | 8.0 | 0.00 | 0.00 | 0.00 | 74 | 1017.4 |
| 20260902010004 | 23 | 37 | 4.8 | 9.7 | 0.00 | 0.00 | 0.00 | 73 | 1017.4 |
| 20260902005503 | 23 | 39 | 3.2 | 9.7 | 0.00 | 0.00 | 0.00 | 74 | 1017.4 |
| 20260902005003 | 23 | 40 | 1.6 | 9.7 | 0.00 | 0.00 | 0.00 | 73 | 1017.4 |
| 20260902004504 | 23 | 38 | 1.6 | 8.0 | 0.00 | 0.00 | 0.00 | 74 | 1017.4 |
| 20260902004003 | 23 | 32 | 1.6 | 8.0 | 0.00 | 0.00 | 0.00 | 73 | 1017.5 |
| 20260902003503 | 23 | 31 | 3.2 | 6.4 | 0.00 | 0.00 | 0.00 | 73 | 1017.6 |
| 20260902003003 | 23 | 33 | 4.8 | 8.0 | 0.00 | 0.00 | 0.00 | 74 | 1017.6 |
| 20260902002503 | 23 | 35 | 4.8 | 8.0 | 0.00 | 0.00 | 0.00 | 74 | 1017.7 |
| 20260902002003 | 23 | 37 | 3.2 | 8.0 | 0.00 | 0.00 | 0.00 | 75 | 1017.8 |
| 20260902001503 | 23 | 31 | 1.6 | 8.0 | 0.00 | 0.00 | 0.00 | 75 | 1017.8 |
| 20260902001003 | 23 | 9 | 1.6 | 4.8 | 0.00 | 0.00 | 0.00 | 75 | 1017.8 |
| 20260902000503 | 23 | 358 | 3.2 | 6.4 | 0.00 | 0.00 | 0.00 | 76 | 1017.7 |
| 20260902000004 | 23 | 26 | 3.2 | 9.7 | 0.00 | 0.00 | 0.00 | 76 | 1017.7 |
| 20260901235503 | 23 | 27 | 1.6 | 9.7 | 0.00 | 0.00 | 0.00 | 76 | 1017.7 |
| 20260901235003 | 23 | 17 | 1.6 | 8.0 | 0.00 | 0.00 | 0.00 | 76 | 1017.7 |
| 20260901234503 | 23 | 29 | 1.6 | 4.8 | 0.00 | 0.00 | 0.00 | 76 | 1017.7 |
| 20260901234003 | 23 | 32 | 3.2 | 6.4 | 0.00 | 0.00 | 0.00 | 76 | 1017.8 |
| 20260901233503 | 23 | 25 | 4.8 | 11.3 | 0.00 | 0.00 | 0.00 | 76 | 1017.7 |
| 20260901233003 | 23 | 30 | 4.8 | 11.3 | 0.00 | 0.00 | 0.00 | 76 | 1017.7 |
| 20260901232503 | 23 | 40 | 4.8 | 11.3 | 0.00 | 0.00 | 0.00 | 76 | 1017.8 |
| 20260901232003 | 23 | 42 | 4.8 | 11.3 | 0.00 | 0.00 | 0.00 | 76 | 1017.8 |
| 20260901231503 | 23 | 44 | 4.8 | 9.7 | 0.00 | 0.00 | 0.00 | 76 | 1017.8 |
| 20260901231003 | 23 | 38 | 4.8 | 8.0 | 0.00 | 0.00 | 0.00 | 76 | 1017.8 |
| 20260901230503 | 23 | 34 | 4.8 | 8.0 | 0.00 | 0.00 | 0.00 | 76 | 1017.8 |
| 20260901230004 | 23 | 35 | 4.8 | 9.7 | 0.00 | 0.00 | 0.00 | 76 | 1017.8 |
| 20260901225503 | 23 | 38 | 4.8 | 9.7 | 0.00 | 0.00 | 0.00 | 76 | 1017.9 |
| 20260901225003 | 23 | 40 | 4.8 | 9.7 | 0.00 | 0.00 | 0.00 | 76 | 1017.9 |
| 20260901224503 | 23 | 42 | 4.8 | 9.7 | 0.00 | 0.00 | 0.00 | 76 | 1018.0 |
| 20260901224003 | 23 | 39 | 3.2 | 11.3 | 0.00 | 0.00 | 0.00 | 76 | 1017.9 |
| 20260901223504 | 23 | 35 | 3.2 | 11.3 | 0.00 | 0.00 | 0.00 | 77 | 1017.9 |
| 20260901223003 | 23 | 34 | 4.8 | 8.0 | 0.00 | 0.00 | 0.00 | 77 | 1018.0 |
| 20260901222503 | 23 | 32 | 6.4 | 11.3 | 0.00 | 0.00 | 0.00 | 78 | 1018.0 |
| 20260901222003 | 23 | 39 | 6.4 | 11.3 | 0.00 | 0.00 | 0.00 | 78 | 1017.9 |
| 20260901221503 | 23 | 41 | 4.8 | 11.3 | 0.00 | 0.00 | 0.00 | 78 | 1017.9 |
| 20260901221003 | 23 | 37 | 4.8 | 9.7 | 0.00 | 0.00 | 0.00 | 78 | 1017.9 |
| 20260901220503 | 23 | 36 | 4.8 | 9.7 | 0.00 | 0.00 | 0.00 | 78 | 1017.8 |
| 20260901220006 | 23 | 35 | 4.8 | 9.7 | 0.00 | 0.00 | 0.00 | 78 | 1017.8 |
| 20260901215503 | 23 | 30 | 4.8 | 9.7 | 0.00 | 0.00 | 0.00 | 78 | 1017.7 |
| 20260901215003 | 23 | 33 | 4.8 | 9.7 | 0.00 | 0.00 | 0.00 | 79 | 1017.8 |
| 20260901214503 | 23 | 35 | 3.2 | 9.7 | 0.00 | 0.00 | 0.00 | 79 | 1017.7 |
| 20260901214003 | 23 | 32 | 3.2 | 8.0 | 0.00 | 0.00 | 0.00 | 79 | 1017.8 |
| 20260901213503 | 23 | 34 | 3.2 | 8.0 | 0.00 | 0.00 | 0.00 | 79 | 1017.9 |
| 20260901213003 | 23 | 36 | 1.6 | 8.0 | 0.00 | 0.00 | 0.00 | 79 | 1017.9 |
| 20260901212503 | 23 | 33 | 1.6 | 6.4 | 0.00 | 0.00 | 0.00 | 79 | 1017.9 |
| 20260901212003 | 23 | 32 | 3.2 | 6.4 | 0.00 | 0.00 | 0.00 | 79 | 1017.9 |
| 20260901211503 | 24 | 40 | 3.2 | 8.0 | 0.00 | 0.00 | 0.00 | 79 | 1017.8 |
| 20260901211004 | 24 | 36 | 1.6 | 8.0 | 0.00 | 0.00 | 0.00 | 79 | 1017.8 |
| 20260901210503 | 24 | 29 | 1.6 | 6.4 | 0.00 | 0.00 | 0.00 | 79 | 1017.8 |
| 20260901210004 | 24 | 30 | 1.6 | 6.4 | 0.00 | 0.00 | 0.00 | 79 | 1017.9 |
| 20260901205503 | 24 | 28 | 1.6 | 4.8 | 0.00 | 0.00 | 0.00 | 79 | 1017.8 |
| 20260901205003 | 24 | 34 | 1.6 | 4.8 | 0.00 | 0.00 | 0.00 | 79 | 1017.8 |
| 20260901204503 | 24 | 30 | 3.2 | 4.8 | 0.00 | 0.00 | 0.00 | 79 | 1017.9 |
| 20260901204003 | 24 | 30 | 3.2 | 6.4 | 0.00 | 0.00 | 0.00 | 79 | 1017.8 |
| 20260901203503 | 24 | 33 | 1.6 | 6.4 | 0.00 | 0.00 | 0.00 | 78 | 1017.9 |
| 20260901203003 | 24 | 32 | 1.6 | 6.4 | 0.00 | 0.00 | 0.00 | 78 | 1017.9 |
| 20260901202503 | 24 | 29 | 1.6 | 6.4 | 0.00 | 0.00 | 0.00 | 78 | 1017.9 |
| 20260901202003 | 25 | 25 | 1.6 | 6.4 | 0.00 | 0.00 | 0.00 | 78 | 1017.8 |
| 20260901201503 | 25 | 31 | 1.6 | 8.0 | 0.00 | 0.00 | 0.00 | 78 | 1017.8 |
| 20260901201003 | 25 | 36 | 0.0 | 8.0 | 0.00 | 0.00 | 0.00 | 78 | 1017.8 |
| 20260901200503 | 25 | 27 | 1.6 | 4.8 | 0.00 | 0.00 | 0.00 | 78 | 1017.9 |
| 20260901200004 | 25 | 33 | 1.6 | 4.8 | 0.00 | 0.00 | 0.00 | 78 | 1017.9 |
| 20260901195503 | 25 | 31 | 1.6 | 8.0 | 0.00 | 0.00 | 0.00 | 77 | 1017.9 |
| 20260901195003 | 25 | 30 | 0.0 | 8.0 | 0.00 | 0.00 | 0.00 | 77 | 1017.8 |
| 20260901194503 | 25 | 24 | 1.6 | 3.2 | 0.00 | 0.00 | 0.00 | 77 | 1017.8 |
| 20260901194003 | 25 | 22 | 1.6 | 6.4 | 0.00 | 0.00 | 0.00 | 77 | 1017.7 |
| 20260901193503 | 25 | 23 | 1.6 | 8.0 | 0.00 | 0.00 | 0.00 | 77 | 1017.7 |
| 20260901193003 | 25 | 27 | 1.6 | 8.0 | 0.00 | 0.00 | 0.00 | 77 | 1017.7 |
| 20260901192503 | 25 | 28 | 1.6 | 6.4 | 0.00 | 0.00 | 0.00 | 76 | 1017.7 |
| 20260901192003 | 25 | 23 | 1.6 | 6.4 | 0.00 | 0.00 | 0.00 | 76 | 1017.6 |
| 20260901191503 | 25 | 19 | 1.6 | 6.4 | 0.00 | 0.00 | 0.00 | 76 | 1017.6 |
| 20260901191003 | 25 | 22 | 3.2 | 6.4 | 0.00 | 0.00 | 0.00 | 76 | 1017.4 |
| 20260901190503 | 25 | 24 | 3.2 | 6.4 | 0.00 | 0.00 | 0.00 | 76 | 1017.3 |
| 20260901190003 | 25 | 27 | 3.2 | 6.4 | 0.00 | 0.00 | 0.00 | 75 | 1017.2 |
| 20260901185503 | 25 | 32 | 4.8 | 6.4 | 0.00 | 0.00 | 0.00 | 75 | 1017.1 |
| 20260901185003 | 25 | 33 | 4.8 | 6.4 | 0.00 | 0.00 | 0.00 | 75 | 1017.1 |
| 20260901184503 | 25 | 27 | 3.2 | 6.4 | 0.00 | 0.00 | 0.00 | 75 | 1017.0 |
| 20260901184003 | 25 | 22 | 3.2 | 6.4 | 0.00 | 0.00 | 0.00 | 74 | 1016.9 |
| 20260901183503 | 25 | 21 | 4.8 | 8.0 | 0.00 | 0.00 | 0.00 | 74 | 1016.9 |
| 20260901183004 | 25 | 23 | 4.8 | 9.7 | 0.00 | 0.00 | 0.00 | 74 | 1016.9 |
| 20260901182503 | 25 | 26 | 4.8 | 9.7 | 0.00 | 0.00 | 0.00 | 74 | 1016.9 |
| 20260901182003 | 25 | 24 | 4.8 | 8.0 | 0.00 | 0.00 | 0.00 | 73 | 1016.9 |
| 20260901181503 | 25 | 21 | 4.8 | 8.0 | 0.00 | 0.00 | 0.00 | 73 | 1016.8 |
| 20260901181003 | 25 | 20 | 4.8 | 8.0 | 0.00 | 0.00 | 0.00 | 73 | 1016.8 |
| 20260901180503 | 25 | 21 | 4.8 | 9.7 | 0.00 | 0.00 | 0.00 | 72 | 1016.7 |
| 20260901180004 | 26 | 23 | 4.8 | 9.7 | 0.00 | 0.00 | 0.00 | 72 | 1016.7 |
| 20260901175503 | 26 | 25 | 3.2 | 6.4 | 0.00 | 0.00 | 0.00 | 72 | 1016.7 |
| 20260901175003 | 26 | 19 | 1.6 | 6.4 | 0.00 | 0.00 | 0.00 | 71 | 1016.6 |
| 20260901174503 | 26 | 346 | 0.0 | 6.4 | 0.00 | 0.00 | 0.00 | 71 | 1016.6 |
| 20260901174003 | 26 | 223 | 0.0 | 3.2 | 0.00 | 0.00 | 0.00 | 71 | 1016.5 |
| 20260901173503 | 27 | 223 | 1.6 | 3.2 | 0.00 | 0.00 | 0.00 | 71 | 1016.4 |
| 20260901173003 | 27 | 223 | 3.2 | 4.8 | 0.00 | 0.00 | 0.00 | 71 | 1016.5 |
| 20260901172503 | 27 | 223 | 3.2 | 4.8 | 0.00 | 0.00 | 0.00 | 71 | 1016.5 |
| 20260901172003 | 27 | 223 | 3.2 | 4.8 | 0.00 | 0.00 | 0.00 | 71 | 1016.4 |
| 20260901171503 | 27 | 223 | 3.2 | 4.8 | 0.00 | 0.00 | 0.00 | 70 | 1016.4 |
| 20260901171004 | 27 | 223 | 3.2 | 4.8 | 0.00 | 0.00 | 0.00 | 70 | 1016.4 |
| 20260901170503 | 27 | 222 | 3.2 | 4.8 | 0.00 | 0.00 | 0.00 | 70 | 1016.4 |
| 20260901170004 | 27 | 222 | 3.2 | 4.8 | 0.00 | 0.00 | 0.00 | 70 | 1016.4 |
| 20260901165503 | 27 | 222 | 3.2 | 4.8 | 0.00 | 0.00 | 0.00 | 70 | 1016.5 |
| 20260901165004 | 27 | 222 | 3.2 | 6.4 | 0.00 | 0.00 | 0.00 | 69 | 1016.5 |
| 20260901164503 | 28 | 223 | 3.2 | 6.4 | 0.00 | 0.00 | 0.00 | 69 | 1016.5 |
| 20260901164003 | 28 | 225 | 3.2 | 4.8 | 0.00 | 0.00 | 0.00 | 69 | 1016.6 |
| 20260901163504 | 27 | 224 | 3.2 | 6.4 | 0.00 | 0.00 | 0.00 | 69 | 1016.5 |
| 20260901163003 | 27 | 222 | 3.2 | 6.4 | 0.00 | 0.00 | 0.00 | 68 | 1016.6 |
| 20260901162503 | 28 | 219 | 3.2 | 4.8 | 0.00 | 0.00 | 0.00 | 67 | 1016.5 |
| 20260901162003 | 28 | 218 | 3.2 | 4.8 | 0.00 | 0.00 | 0.00 | 68 | 1016.6 |
| 20260901161503 | 28 | 216 | 3.2 | 6.4 | 0.00 | 0.00 | 0.00 | 67 | 1016.6 |
| 20260901161004 | 28 | 215 | 4.8 | 6.4 | 0.00 | 0.00 | 0.00 | 65 | 1016.6 |
| 20260901160503 | 29 | 213 | 4.8 | 8.0 | 0.00 | 0.00 | 0.00 | 66 | 1016.6 |
| 20260901160004 | 29 | 214 | 4.8 | 8.0 | 0.00 | 0.00 | 0.00 | 67 | 1016.6 |
| 20260901155503 | 29 | 218 | 4.8 | 8.0 | 0.00 | 0.00 | 0.00 | 66 | 1016.7 |
| 20260901155003 | 29 | 220 | 4.8 | 6.4 | 0.00 | 0.00 | 0.00 | 66 | 1016.6 |
| 20260901154503 | 29 | 220 | 4.8 | 8.0 | 0.00 | 0.00 | 0.00 | 66 | 1016.7 |
| 20260901154003 | 29 | 221 | 4.8 | 8.0 | 0.00 | 0.00 | 0.00 | 66 | 1016.7 |